Location: Alpha Ridge Park
(39.3209°N, 76.9128°W)
Time: 06:30:13
(UTC-04:00)

Transit 2A - Pass Details

Date: 29 May 2019
Orbit: 593 x 966 km, 66.7° (Epoch: 15 June)

Event Time Altitude Azimuth Distance (km) Brightness Sun altitude
Rises 08:09:25 0° 241° (WSW) 3,578 8.9 25.6°
Reaches altitude 10° 08:12:16 10° 252° (WSW) 2,668 8.3 26.2°
Maximum altitude 08:17:41 30° 311° (NW) 1,673 7.6 27.2°
Drops below altitude 10° 08:23:12 10° 11° (N) 2,701 9.1 28.3°
Sets 08:26:07 0° 22° (NNE) 3,629 9.8 28.9°
